05-01-2023, 00:00:04,    217,    1.4,    8.1,   0.00,   0.00, 1015.1,   82.3, -999.0
05-01-2023, 00:00:14,    229,    0.9,    8.1,   0.00,   0.00, 1015.1,   82.3, -999.0
05-01-2023, 00:00:24,    221,    1.5,    8.1,   0.00,   0.00, 1015.1,   82.3, -999.0
05-01-2023, 00:00:34,    249,    1.3,    8.1,   0.00,   0.00, 1015.1,   82.3, -999.0
05-01-2023, 00:00:44,    247,    0.3,    8.1,   0.00,   0.00, 1015.0,   82.3, -999.0
05-01-2023, 00:00:54,    247,    0.0,    8.0,   0.00,   0.00, 1014.9,   81.9, -999.0
05-01-2023, 00:01:04,    247,    0.0,    7.9,   0.00,   0.00, 1014.9,   81.8, -999.0
05-01-2023, 00:01:14,    247,    0.0,    8.0,   0.00,   0.00, 1015.0,   81.9, -999.0
05-01-2023, 00:01:24,    249,    0.5,    8.0,   0.00,   0.00, 1015.1,   82.2, -999.0
05-01-2023, 00:01:34,    275,    2.8,    8.0,   0.00,   0.00, 1015.1,   82.3, -999.0
05-01-2023, 00:01:44,    235,    3.2,    8.1,   0.00,   0.00, 1015.1,   82.3, -999.0
05-01-2023, 00:01:54,    252,    2.1,    8.1,   0.00,   0.00, 1015.1,   82.5, -999.0
05-01-2023, 00:02:04,    257,    2.4,    8.1,   0.00,   0.00, 1015.0,   82.5, -999.0
05-01-2023, 00:02:14,    231,    1.4,    8.1,   0.00,   0.00, 1015.0,   82.5, -999.0
05-01-2023, 00:02:24,    241,    0.6,    8.1,   0.00,   0.00, 1015.0,   82.5, -999.0
05-01-2023, 00:02:34,    250,    2.8,    8.1,   0.00,   0.00, 1015.1,   82.6, -999.0
05-01-2023, 00:02:44,    247,    0.7,    8.0,   0.00,   0.00, 1015.1,   82.5, -999.0
05-01-2023, 00:02:54,    239,    0.9,    8.1,   0.00,   0.00, 1015.0,   82.4, -999.0
05-01-2023, 00:03:04,    262,    3.0,    8.1,   0.00,   0.00, 1015.0,   82.5, -999.0
05-01-2023, 00:03:14,    281,    1.4,    8.1,   0.00,   0.00, 1014.9,   82.4, -999.0
05-01-2023, 00:03:24,    281,    0.2,    8.0,   0.00,   0.00, 1014.9,   82.3, -999.0
05-01-2023, 00:03:34,    268,    1.1,    8.0,   0.00,   0.00, 1014.9,   82.4, -999.0
05-01-2023, 00:03:44,    261,    1.3,    8.1,   0.00,   0.00, 1015.0,   82.5, -999.0
05-01-2023, 00:03:53,    206,    3.9,    8.0,   0.00,   0.00, 1015.0,   82.6, -999.0
05-01-2023, 00:04:04,    238,    1.4,    8.1,   0.00,   0.00, 1015.1,   82.6, -999.0
05-01-2023, 00:04:14,    274,    3.2,    8.2,   0.00,   0.00, 1014.9,   82.7, -999.0
05-01-2023, 00:04:24,    301,    2.4,    8.0,   0.00,   0.00, 1014.9,   82.7, -999.0
05-01-2023, 00:04:33,    248,    1.7,    8.1,   0.00,   0.00, 1015.0,   82.7, -999.0
05-01-2023, 00:04:44,    244,    0.7,    7.9,   0.00,   0.00, 1014.9,   82.5, -999.0
05-01-2023, 00:04:54,    245,    0.5,    8.0,   0.00,   0.00, 1014.8,   82.4, -999.0
05-01-2023, 00:05:03,    276,    2.3,    8.1,   0.00,   0.00, 1015.0,   82.6, -999.0
05-01-2023, 00:05:13,    264,    2.5,    8.1,   0.00,   0.00, 1015.0,   82.6, -999.0
05-01-2023, 00:05:24,    251,    3.2,    8.1,   0.00,   0.00, 1015.0,   82.6, -999.0
05-01-2023, 00:05:33,    287,    1.1,    8.2,   0.00,   0.00, 1015.0,   82.6, -999.0
05-01-2023, 00:05:43,    244,    3.2,    8.1,   0.00,   0.00, 1015.0,   82.6, -999.0
05-01-2023, 00:05:53,    233,    2.2,    8.1,   0.00,   0.00, 1015.0,   82.6, -999.0
05-01-2023, 00:06:03,    260,    0.5,    8.0,   0.00,   0.00, 1014.9,   82.6, -999.0
05-01-2023, 00:06:13,    232,    1.7,    8.1,   0.00,   0.00, 1014.9,   82.6, -999.0
05-01-2023, 00:06:23,    275,    1.4,    8.1,   0.00,   0.00, 1014.9,   82.6, -999.0
05-01-2023, 00:06:34,    237,    0.8,    8.1,   0.00,   0.00, 1014.9,   82.5, -999.0
05-01-2023, 00:06:43,    236,    0.0,    8.0,   0.00,   0.00, 1014.8,   82.3, -999.0
05-01-2023, 00:06:53,    311,    0.0,    7.9,   0.00,   0.00, 1014.8,   82.2, -999.0
05-01-2023, 00:07:03,    290,    1.1,    8.0,   0.00,   0.00, 1014.9,   82.6, -999.0
05-01-2023, 00:07:13,    254,    2.3,    8.0,   0.00,   0.00, 1014.9,   82.6, -999.0
05-01-2023, 00:07:23,    247,    0.7,    8.0,   0.00,   0.00, 1014.9,   82.5, -999.0
05-01-2023, 00:07:33,    291,    0.5,    8.0,   0.00,   0.00, 1014.9,   82.4, -999.0
05-01-2023, 00:07:43,    266,    1.4,    8.0,   0.00,   0.00, 1014.9,   82.6, -999.0
05-01-2023, 00:07:53,    267,    0.7,    8.1,   0.00,   0.00, 1014.9,   82.7, -999.0
05-01-2023, 00:08:03,    261,    0.9,    8.1,   0.00,   0.00, 1014.9,   82.7, -999.0
05-01-2023, 00:08:13,    278,    1.0,    8.0,   0.00,   0.00, 1014.9,   82.7, -999.0
05-01-2023, 00:08:23,    272,    1.1,    8.0,   0.00,   0.00, 1014.9,   82.7, -999.0
05-01-2023, 00:08:33,    269,    0.9,    7.9,   0.00,   0.00, 1014.9,   82.7, -999.0
05-01-2023, 00:08:43,    235,    1.0,    7.9,   0.00,   0.00, 1014.9,   82.6, -999.0
05-01-2023, 00:08:53,    236,    1.5,    8.0,   0.00,   0.00, 1014.9,   82.9, -999.0
05-01-2023, 00:09:03,    241,    0.3,    8.0,   0.00,   0.00, 1014.8,   82.7, -999.0
05-01-2023, 00:09:13,    231,    0.5,    7.9,   0.00,   0.00, 1014.9,   82.9, -999.0
05-01-2023, 00:09:23,    259,    4.0,    8.0,   0.00,   0.00, 1014.9,   83.0, -999.0
05-01-2023, 00:09:33,    260,    4.4,    8.0,   0.00,   0.00, 1014.9,   83.0, -999.0
05-01-2023, 00:09:43,    232,    2.2,    8.0,   0.00,   0.00, 1014.9,   83.1, -999.0
05-01-2023, 00:09:53,    282,    0.9,    8.0,   0.00,   0.00, 1014.9,   83.1, -999.0
05-01-2023, 00:10:03,    281,    1.5,    8.0,   0.00,   0.00, 1014.9,   83.0, -999.0
05-01-2023, 00:10:13,    280,    1.5,    8.0,   0.00,   0.00, 1014.9,   83.1, -999.0
05-01-2023, 00:10:23,    280,    0.1,    7.8,   0.00,   0.00, 1014.8,   82.8, -999.0
05-01-2023, 00:10:33,    280,    0.1,    7.9,   0.00,   0.00, 1014.8,   82.9, -999.0
05-01-2023, 00:10:43,    226,    0.0,    7.9,   0.00,   0.00, 1014.8,   82.8, -999.0
05-01-2023, 00:10:53,    324,    0.7,    8.0,   0.00,   0.00, 1015.0,   83.1, -999.0
05-01-2023, 00:11:03,    248,    1.7,    8.0,   0.00,   0.00, 1015.0,   83.2, -999.0
05-01-2023, 00:11:13,    238,    1.4,    8.0,   0.00,   0.00, 1015.0,   83.2, -999.0
05-01-2023, 00:11:23,    240,    0.4,    7.9,   0.00,   0.00, 1015.0,   83.2, -999.0
05-01-2023, 00:11:33,    241,    0.0,    7.9,   0.00,   0.00, 1014.9,   82.8, -999.0
05-01-2023, 00:11:43,    228,    0.8,    7.9,   0.00,   0.00, 1015.0,   83.2, -999.0
05-01-2023, 00:11:53,    238,    3.1,    8.0,   0.00,   0.00, 1015.0,   83.3, -999.0
05-01-2023, 00:12:03,    280,    2.1,    8.0,   0.00,   0.00, 1015.0,   83.3, -999.0
05-01-2023, 00:12:12,    240,    2.4,    8.0,   0.00,   0.00, 1015.0,   83.3, -999.0
05-01-2023, 00:12:23,    234,    4.4,    8.0,   0.00,   0.00, 1015.0,   83.3, -999.0
05-01-2023, 00:12:33,    263,    3.3,    8.0,   0.00,   0.00, 1015.0,   83.3, -999.0
05-01-2023, 00:12:42,    242,    2.8,    8.0,   0.00,   0.00, 1015.0,   83.3, -999.0
05-01-2023, 00:12:52,    246,    1.8,    8.0,   0.00,   0.00, 1015.0,   83.2, -999.0
05-01-2023, 00:13:03,    243,    0.5,    8.0,   0.00,   0.00, 1015.0,   83.1, -999.0
05-01-2023, 00:13:12,    279,    0.0,    7.9,   0.00,   0.00, 1014.9,   82.9, -999.0
05-01-2023, 00:13:22,    279,    0.1,    8.0,   0.00,   0.00, 1015.0,   83.1, -999.0
05-01-2023, 00:13:32,    279,    0.1,    8.0,   0.00,   0.00, 1015.0,   83.1, -999.0
05-01-2023, 00:13:43,    279,    0.0,    7.9,   0.00,   0.00, 1014.9,   82.9, -999.0
05-01-2023, 00:13:52,    279,    0.0,    7.8,   0.00,   0.00, 1014.8,   82.9, -999.0
05-01-2023, 00:14:02,    251,    1.0,    7.9,   0.00,   0.00, 1015.0,   83.1, -999.0
05-01-2023, 00:14:13,    300,    0.4,    7.9,   0.00,   0.00, 1015.0,   83.2, -999.0
05-01-2023, 00:14:22,    280,    0.1,    7.9,   0.00,   0.00, 1014.9,   82.9, -999.0
05-01-2023, 00:14:32,    228,    0.5,    7.9,   0.00,   0.00, 1015.0,   83.3, -999.0
05-01-2023, 00:14:42,    263,    3.0,    8.0,   0.00,   0.00, 1015.0,   83.3, -999.0
05-01-2023, 00:14:52,    248,    4.2,    7.9,   0.00,   0.00, 1015.1,   83.2, -999.0
05-01-2023, 00:15:02,    163,    2.1,    8.0,   0.00,   0.00, 1015.1,   83.3, -999.0
05-01-2023, 00:15:12,    253,    1.1,    8.0,   0.00,   0.00, 1015.1,   83.3, -999.0
05-01-2023, 00:15:22,    248,    1.4,    8.0,   0.00,   0.00, 1015.0,   83.3, -999.0
05-01-2023, 00:15:32,    245,    1.2,    8.0,   0.00,   0.00, 1015.1,   83.4, -999.0
05-01-2023, 00:15:42,    233,    0.9,    8.0,   0.00,   0.00, 1015.0,   83.2, -999.0
05-01-2023, 00:15:52,    262,    0.9,    7.9,   0.00,   0.00, 1015.1,   83.3, -999.0
05-01-2023, 00:16:02,    277,    0.7,    8.0,   0.00,   0.00, 1015.1,   83.3, -999.0
05-01-2023, 00:16:12,    300,    2.5,    8.0,   0.00,   0.00, 1015.1,   83.4, -999.0
05-01-2023, 00:16:22,    239,    0.8,    7.9,   0.00,   0.00, 1015.1,   83.4, -999.0
05-01-2023, 00:16:32,    241,    0.1,    7.9,   0.00,   0.00, 1015.0,   83.1, -999.0
05-01-2023, 00:16:42,    243,    1.1,    7.9,   0.00,   0.00, 1015.1,   83.3, -999.0
05-01-2023, 00:16:52,    272,    1.3,    8.0,   0.00,   0.00, 1015.1,   83.4, -999.0
05-01-2023, 00:17:02,    236,    0.9,    8.0,   0.00,   0.00, 1015.1,   83.4, -999.0
05-01-2023, 00:17:12,    231,    1.8,    8.0,   0.00,   0.00, 1015.1,   83.4, -999.0
05-01-2023, 00:17:22,    240,    0.4,    8.0,   0.00,   0.00, 1015.1,   83.3, -999.0
05-01-2023, 00:17:32,    287,    2.3,    8.0,   0.00,   0.00, 1015.1,   83.4, -999.0
05-01-2023, 00:17:42,    265,    1.6,    8.0,   0.00,   0.00, 1015.1,   83.4, -999.0
05-01-2023, 00:17:52,    263,    2.2,    8.0,   0.00,   0.00, 1015.1,   83.4, -999.0
05-01-2023, 00:18:02,    263,    2.4,    8.0,   0.00,   0.00, 1015.1,   83.4, -999.0
05-01-2023, 00:18:12,    257,    5.9,    8.0,   0.00,   0.00, 1015.1,   83.4, -999.0
05-01-2023, 00:18:22,    276,    4.1,    8.0,   0.00,   0.00, 1015.1,   83.4, -999.0
05-01-2023, 00:18:32,    233,    2.5,    8.0,   0.00,   0.00, 1015.1,   83.4, -999.0
05-01-2023, 00:18:42,    285,    2.4,    8.0,   0.00,   0.00, 1015.1,   83.3, -999.0
05-01-2023, 00:18:52,    251,    2.2,    8.0,   0.00,   0.00, 1015.1,   83.2, -999.0
05-01-2023, 00:19:02,    261,    1.2,    8.0,   0.00,   0.00, 1015.1,   83.2, -999.0
05-01-2023, 00:19:11,    291,    1.6,    8.0,   0.00,   0.00, 1015.1,   83.3, -999.0
05-01-2023, 00:19:22,    231,    3.2,    8.0,   0.00,   0.00, 1015.0,   83.3, -999.0
05-01-2023, 00:19:32,    204,    2.1,    8.0,   0.00,   0.00, 1015.1,   83.3, -999.0
05-01-2023, 00:19:42,    229,    1.0,    8.0,   0.00,   0.00, 1015.0,   83.2, -999.0
05-01-2023, 00:19:52,    218,    1.4,    8.0,   0.00,   0.00, 1015.1,   83.2, -999.0
05-01-2023, 00:20:02,    247,    2.7,    8.1,   0.00,   0.00, 1015.1,   83.3, -999.0
05-01-2023, 00:20:12,    253,    1.7,    8.0,   0.00,   0.00, 1015.1,   83.2, -999.0
05-01-2023, 00:20:21,    298,    1.1,    8.0,   0.00,   0.00, 1015.1,   83.3, -999.0
05-01-2023, 00:20:32,    263,    0.7,    8.0,   0.00,   0.00, 1015.1,   83.2, -999.0
05-01-2023, 00:20:42,    302,    3.1,    8.0,   0.00,   0.00, 1015.1,   83.3, -999.0
05-01-2023, 00:20:51,    263,    3.3,    8.0,   0.00,   0.00, 1015.1,   83.3, -999.0
05-01-2023, 00:21:01,    233,    4.0,    8.0,   0.00,   0.00, 1015.1,   83.3, -999.0
05-01-2023, 00:21:12,    232,    1.5,    7.9,   0.00,   0.00, 1015.1,   83.4, -999.0
05-01-2023, 00:21:21,    266,    1.1,    8.0,   0.00,   0.00, 1015.0,   83.3, -999.0
05-01-2023, 00:21:31,    265,    0.4,    8.0,   0.00,   0.00, 1015.0,   83.3, -999.0
05-01-2023, 00:21:41,    288,    1.0,    7.8,   0.00,   0.00, 1015.1,   83.2, -999.0
05-01-2023, 00:21:52,    280,    3.4,    7.9,   0.00,   0.00, 1015.1,   83.3, -999.0
05-01-2023, 00:22:01,    279,    0.9,    8.0,   0.00,   0.00, 1015.1,   83.3, -999.0
05-01-2023, 00:22:11,    249,    1.1,    8.0,   0.00,   0.00, 1015.0,   83.3, -999.0
05-01-2023, 00:22:21,    296,    0.6,    8.0,   0.00,   0.00, 1015.1,   83.4, -999.0
05-01-2023, 00:22:31,    255,    1.1,    7.9,   0.00,   0.00, 1015.1,   83.3, -999.0
05-01-2023, 00:22:41,    263,    0.5,    7.9,   0.00,   0.00, 1015.0,   83.2, -999.0
05-01-2023, 00:22:51,    264,    0.6,    8.0,   0.00,   0.00, 1015.1,   83.4, -999.0
05-01-2023, 00:23:01,    263,    0.0,    7.8,   0.00,   0.00, 1014.9,   83.0, -999.0
05-01-2023, 00:23:11,    262,    0.0,    7.8,   0.00,   0.00, 1015.0,   83.1, -999.0
05-01-2023, 00:23:21,    256,    0.3,    7.9,   0.00,   0.00, 1015.0,   83.3, -999.0
05-01-2023, 00:23:31,    219,    1.4,    7.9,   0.00,   0.00, 1015.0,   83.4, -999.0
05-01-2023, 00:23:41,    265,    2.1,    7.9,   0.00,   0.00, 1015.1,   83.6, -999.0
05-01-2023, 00:23:51,    250,    2.5,    7.9,   0.00,   0.00, 1015.1,   83.7, -999.0
05-01-2023, 00:24:01,    206,    4.4,    7.9,   0.00,   0.00, 1015.1,   83.7, -999.0
05-01-2023, 00:24:11,    247,    2.4,    8.0,   0.00,   0.00, 1015.1,   83.7, -999.0
05-01-2023, 00:24:21,    252,    2.1,    8.0,   0.00,   0.00, 1015.1,   83.7, -999.0
05-01-2023, 00:24:31,    241,    1.0,    7.9,   0.00,   0.00, 1015.1,   83.6, -999.0
05-01-2023, 00:24:41,    242,    0.0,    7.9,   0.00,   0.00, 1015.0,   83.5, -999.0
05-01-2023, 00:24:51,    246,    0.8,    7.9,   0.00,   0.00, 1015.1,   83.6, -999.0
05-01-2023, 00:25:01,    261,    2.1,    8.0,   0.00,   0.00, 1015.1,   83.6, -999.0
05-01-2023, 00:25:11,    242,    2.7,    8.0,   0.00,   0.00, 1015.1,   83.6, -999.0
05-01-2023, 00:25:21,    282,    1.2,    7.9,   0.00,   0.00, 1015.1,   83.5, -999.0
05-01-2023, 00:25:31,    235,    0.6,    7.9,   0.00,   0.00, 1015.1,   83.6, -999.0
05-01-2023, 00:25:41,    231,    0.6,    7.9,   0.00,   0.00, 1015.1,   83.6, -999.0
05-01-2023, 00:25:51,    232,    0.0,    7.9,   0.00,   0.00, 1015.0,   83.1, -999.0
05-01-2023, 00:26:01,    228,    0.0,    7.8,   0.00,   0.00, 1014.9,   83.0, -999.0
05-01-2023, 00:26:11,    235,    0.0,    7.8,   0.00,   0.00, 1015.0,   83.1, -999.0
05-01-2023, 00:26:21,    281,    0.8,    7.8,   0.00,   0.00, 1015.1,   83.3, -999.0
05-01-2023, 00:26:31,    244,    1.7,    7.9,   0.00,   0.00, 1015.1,   83.4, -999.0
05-01-2023, 00:26:41,    260,    2.6,    7.9,   0.00,   0.00, 1015.1,   83.6, -999.0
05-01-2023, 00:26:51,    273,    2.1,    7.9,   0.00,   0.00, 1015.1,   83.7, -999.0
05-01-2023, 00:27:01,    242,    0.8,    7.9,   0.00,   0.00, 1015.1,   83.7, -999.0
05-01-2023, 00:27:11,    243,    0.5,    7.9,   0.00,   0.00, 1015.1,   83.8, -999.0
05-01-2023, 00:27:20,    266,    1.9,    7.9,   0.00,   0.00, 1015.1,   83.8, -999.0
05-01-2023, 00:27:31,    255,    2.9,    7.9,   0.00,   0.00, 1015.1,   83.8, -999.0
05-01-2023, 00:27:41,    254,    3.0,    7.9,   0.00,   0.00, 1015.1,   83.9, -999.0
05-01-2023, 00:27:50,    286,    2.6,    7.9,   0.00,   0.00, 1015.1,   83.9, -999.0
05-01-2023, 00:28:01,    246,    2.2,    7.9,   0.00,   0.00, 1015.1,   84.0, -999.0
05-01-2023, 00:28:11,    268,    0.7,    7.8,   0.00,   0.00, 1015.1,   83.9, -999.0
05-01-2023, 00:28:21,    242,    2.8,    7.9,   0.00,   0.00, 1015.2,   84.0, -999.0
05-01-2023, 00:28:30,    211,    0.8,    7.9,   0.00,   0.00, 1015.1,   83.9, -999.0
05-01-2023, 00:28:41,    178,    0.2,    7.8,   0.00,   0.00, 1015.0,   83.8, -999.0
05-01-2023, 00:28:51,    193,    0.1,    7.8,   0.00,   0.00, 1015.1,   84.0, -999.0
05-01-2023, 00:29:00,    193,    0.0,    7.7,   0.00,   0.00, 1015.0,   83.8, -999.0
05-01-2023, 00:29:10,    306,    0.0,    7.8,   0.00,   0.00, 1015.0,   83.9, -999.0
05-01-2023, 00:29:21,    262,    2.4,    7.8,   0.00,   0.00, 1015.1,   84.1, -999.0
05-01-2023, 00:29:30,    244,    3.0,    7.9,   0.00,   0.00, 1015.1,   84.1, -999.0
05-01-2023, 00:29:40,    234,    1.1,    7.9,   0.00,   0.00, 1015.1,   84.2, -999.0
05-01-2023, 00:29:50,    254,    0.8,    7.8,   0.00,   0.00, 1015.1,   84.0, -999.0
05-01-2023, 00:30:01,    262,    1.0,    7.8,   0.00,   0.00, 1015.1,   84.2, -999.0
05-01-2023, 00:30:10,    261,    0.5,    7.9,   0.00,   0.00, 1015.1,   84.2, -999.0
05-01-2023, 00:30:20,    239,    1.4,    7.8,   0.00,   0.00, 1015.1,   84.3, -999.0
05-01-2023, 00:30:30,    222,    3.8,    7.9,   0.00,   0.00, 1015.1,   84.4, -999.0
05-01-2023, 00:30:40,    227,    5.0,    7.9,   0.00,   0.00, 1015.1,   84.4, -999.0
05-01-2023, 00:30:50,    268,    2.6,    7.9,   0.00,   0.00, 1015.1,   84.4, -999.0
05-01-2023, 00:31:00,    247,    1.1,    7.9,   0.00,   0.00, 1015.1,   84.4, -999.0
05-01-2023, 00:31:10,    240,    1.4,    7.9,   0.00,   0.00, 1015.1,   84.3, -999.0
05-01-2023, 00:31:20,    283,    1.4,    7.8,   0.00,   0.00, 1015.1,   84.1, -999.0
05-01-2023, 00:31:30,    231,    1.9,    7.9,   0.00,   0.00, 1015.1,   84.1, -999.0
05-01-2023, 00:31:40,    233,    0.3,    7.8,   0.00,   0.00, 1015.1,   84.1, -999.0
05-01-2023, 00:31:50,    250,    0.1,    7.7,   0.00,   0.00, 1015.0,   83.9, -999.0
05-01-2023, 00:32:00,    250,    0.2,    7.8,   0.00,   0.00, 1015.0,   84.0, -999.0
05-01-2023, 00:32:10,    250,    0.1,    7.8,   0.00,   0.00, 1015.0,   83.9, -999.0
05-01-2023, 00:32:20,    356,    0.2,    7.8,   0.00,   0.00, 1015.0,   83.9, -999.0
05-01-2023, 00:32:30,    228,    0.4,    7.8,   0.00,   0.00, 1015.1,   84.1, -999.0
05-01-2023, 00:32:40,    233,    1.4,    7.9,   0.00,   0.00, 1015.1,   84.1, -999.0
05-01-2023, 00:32:50,    239,    2.1,    7.8,   0.00,   0.00, 1015.1,   84.2, -999.0
05-01-2023, 00:33:00,    223,    2.0,    7.8,   0.00,   0.00, 1015.1,   84.3, -999.0
05-01-2023, 00:33:10,    239,    0.7,    7.8,   0.00,   0.00, 1015.1,   84.4, -999.0
05-01-2023, 00:33:20,    268,    0.8,    7.8,   0.00,   0.00, 1015.0,   84.3, -999.0
05-01-2023, 00:33:30,    267,    0.3,    7.8,   0.00,   0.00, 1015.1,   84.4, -999.0
05-01-2023, 00:33:40,    267,    0.1,    7.8,   0.00,   0.00, 1015.0,   84.2, -999.0
05-01-2023, 00:33:50,    267,    0.1,    7.8,   0.00,   0.00, 1015.0,   84.3, -999.0
05-01-2023, 00:34:00,    298,    0.2,    7.8,   0.00,   0.00, 1015.0,   84.4, -999.0
05-01-2023, 00:34:10,    271,    1.0,    7.8,   0.00,   0.00, 1015.1,   84.6, -999.0
05-01-2023, 00:34:20,    248,    1.8,    7.7,   0.00,   0.00, 1015.1,   84.6, -999.0
05-01-2023, 00:34:30,    244,    2.0,    7.8,   0.00,   0.00, 1015.1,   84.6, -999.0
05-01-2023, 00:34:40,    276,    1.7,    7.8,   0.00,   0.00, 1015.1,   84.7, -999.0
05-01-2023, 00:34:50,    256,    1.2,    7.8,   0.00,   0.00, 1015.1,   84.7, -999.0
05-01-2023, 00:35:00,    253,    0.6,    7.7,   0.00,   0.00, 1015.1,   84.7, -999.0
05-01-2023, 00:35:10,    261,    2.1,    7.8,   0.00,   0.00, 1015.1,   84.7, -999.0
05-01-2023, 00:35:20,    256,    1.1,    7.8,   0.00,   0.00, 1015.0,   84.8, -999.0
05-01-2023, 00:35:29,    263,    2.7,    7.8,   0.00,   0.00, 1015.1,   84.9, -999.0
05-01-2023, 00:35:40,    243,    1.2,    7.8,   0.00,   0.00, 1015.1,   84.8, -999.0
05-01-2023, 00:35:50,    223,    1.0,    7.8,   0.00,   0.00, 1015.0,   84.9, -999.0
05-01-2023, 00:35:59,    224,    0.3,    7.7,   0.00,   0.00, 1015.0,   84.7, -999.0
05-01-2023, 00:36:09,    255,    1.7,    7.8,   0.00,   0.00, 1015.1,   84.7, -999.0
05-01-2023, 00:36:20,    246,    1.9,    7.8,   0.00,   0.00, 1015.0,   84.8, -999.0
05-01-2023, 00:36:30,    247,    1.1,    7.8,   0.00,   0.00, 1015.1,   84.8, -999.0
05-01-2023, 00:36:39,    247,    2.1,    7.8,   0.00,   0.00, 1015.1,   84.9, -999.0
05-01-2023, 00:36:49,    243,    3.1,    7.8,   0.00,   0.00, 1015.1,   85.1, -999.0
05-01-2023, 00:37:00,    237,    3.1,    7.9,   0.00,   0.00, 1015.0,   85.1, -999.0
05-01-2023, 00:37:09,    243,    2.2,    7.8,   0.00,   0.00, 1015.1,   85.0, -999.0
05-01-2023, 00:37:19,    325,    1.3,    7.8,   0.00,   0.00, 1015.1,   85.0, -999.0
05-01-2023, 00:37:30,    329,    0.1,    7.8,   0.00,   0.00, 1015.0,   84.9, -999.0
05-01-2023, 00:37:39,    327,    0.0,    7.7,   0.00,   0.00, 1014.9,   84.5, -999.0
05-01-2023, 00:37:49,    277,    2.0,    7.8,   0.00,   0.00, 1015.1,   84.7, -999.0
05-01-2023, 00:37:59,    288,    2.0,    7.8,   0.00,   0.00, 1015.1,   84.7, -999.0
05-01-2023, 00:38:10,    223,    2.7,    7.8,   0.00,   0.00, 1015.1,   84.6, -999.0
05-01-2023, 00:38:19,    268,    3.4,    7.8,   0.00,   0.00, 1015.1,   84.8, -999.0
05-01-2023, 00:38:29,    223,    2.7,    7.8,   0.00,   0.00, 1015.1,   84.8, -999.0
05-01-2023, 00:38:39,    248,    3.9,    7.8,   0.00,   0.00, 1015.1,   84.7, -999.0
05-01-2023, 00:38:49,    217,    2.0,    7.8,   0.00,   0.00, 1015.1,   84.8, -999.0
05-01-2023, 00:38:59,    217,    0.0,    7.7,   0.00,   0.00, 1015.0,   84.5, -999.0
05-01-2023, 00:39:09,    248,    1.3,    7.7,   0.00,   0.00, 1015.1,   84.7, -999.0
05-01-2023, 00:39:19,    236,    2.9,    7.9,   0.00,   0.00, 1015.1,   84.8, -999.0
05-01-2023, 00:39:29,    243,    2.9,    7.9,   0.00,   0.00, 1015.1,   84.8, -999.0
05-01-2023, 00:39:39,    235,    4.1,    7.9,   0.00,   0.00, 1015.1,   84.7, -999.0
05-01-2023, 00:39:49,    265,    2.3,    7.8,   0.00,   0.00, 1015.1,   84.7, -999.0
05-01-2023, 00:39:59,    224,    1.8,    7.8,   0.00,   0.00, 1015.1,   84.7, -999.0
05-01-2023, 00:40:09,    248,    2.8,    7.8,   0.00,   0.00, 1015.1,   84.6, -999.0
05-01-2023, 00:40:19,    277,    1.9,    7.9,   0.00,   0.00, 1015.1,   84.6, -999.0
05-01-2023, 00:40:29,    252,    2.1,    7.7,   0.00,   0.00, 1015.1,   84.6, -999.0
05-01-2023, 00:40:39,    245,    2.2,    7.9,   0.00,   0.00, 1015.1,   84.7, -999.0
05-01-2023, 00:40:49,    245,    3.9,    7.8,   0.00,   0.00, 1015.1,   84.7, -999.0
05-01-2023, 00:40:59,    273,    5.1,    7.9,   0.00,   0.00, 1015.1,   84.7, -999.0
05-01-2023, 00:41:09,    266,    2.4,    7.9,   0.00,   0.00, 1015.1,   84.7, -999.0
05-01-2023, 00:41:19,    219,    3.2,    7.8,   0.00,   0.00, 1015.1,   84.6, -999.0
05-01-2023, 00:41:29,    253,    4.8,    7.8,   0.00,   0.00, 1015.1,   84.6, -999.0
05-01-2023, 00:41:39,    244,    1.8,    7.8,   0.00,   0.00, 1015.1,   84.7, -999.0
05-01-2023, 00:41:49,    238,    1.0,    7.9,   0.00,   0.00, 1015.1,   84.6, -999.0
05-01-2023, 00:41:59,    255,    0.5,    7.9,   0.00,   0.00, 1015.1,   84.5, -999.0
05-01-2023, 00:42:09,    237,    3.7,    7.8,   0.00,   0.00, 1015.1,   84.4, -999.0
05-01-2023, 00:42:19,    262,    2.3,    7.9,   0.00,   0.00, 1015.1,   84.4, -999.0
05-01-2023, 00:42:29,    253,    2.4,    7.8,   0.00,   0.00, 1015.1,   84.3, -999.0
05-01-2023, 00:42:39,    241,    2.5,    7.8,   0.00,   0.00, 1015.1,   84.4, -999.0
05-01-2023, 00:42:49,    263,    4.4,    7.9,   0.00,   0.00, 1015.1,   84.5, -999.0
05-01-2023, 00:42:59,    232,    2.5,    7.9,   0.00,   0.00, 1015.1,   84.4, -999.0
05-01-2023, 00:43:08,    218,    0.8,    7.8,   0.00,   0.00, 1015.1,   84.4, -999.0
05-01-2023, 00:43:19,    214,    1.5,    7.8,   0.00,   0.00, 1015.1,   84.3, -999.0
05-01-2023, 00:43:29,    273,    0.7,    7.8,   0.00,   0.00, 1015.1,   84.3, -999.0
05-01-2023, 00:43:39,    271,    0.7,    7.8,   0.00,   0.00, 1015.1,   84.3, -999.0
05-01-2023, 00:43:49,    249,    0.3,    7.9,   0.00,   0.00, 1015.1,   84.3, -999.0
05-01-2023, 00:43:59,    227,    2.0,    7.8,   0.00,   0.00, 1015.1,   84.3, -999.0
05-01-2023, 00:44:09,    256,    4.3,    7.7,   0.00,   0.00, 1015.1,   84.4, -999.0
05-01-2023, 00:44:18,    249,    3.4,    7.8,   0.00,   0.00, 1015.1,   84.5, -999.0
05-01-2023, 00:44:29,    248,    1.7,    7.8,   0.00,   0.00, 1015.1,   84.6, -999.0
05-01-2023, 00:44:39,    266,    2.2,    7.8,   0.00,   0.00, 1015.1,   84.6, -999.0
05-01-2023, 00:44:48,    237,    3.5,    7.7,   0.00,   0.00, 1015.1,   84.5, -999.0
05-01-2023, 00:44:58,    269,    2.2,    7.8,   0.00,   0.00, 1015.1,   84.5, -999.0
05-01-2023, 00:45:09,    256,    0.9,    7.8,   0.00,   0.00, 1015.1,   84.5, -999.0
05-01-2023, 00:45:19,    235,    0.7,    7.9,   0.00,   0.00, 1015.1,   84.5, -999.0
05-01-2023, 00:45:28,    249,    0.9,    7.8,   0.00,   0.00, 1015.1,   84.5, -999.0
05-01-2023, 00:45:38,    258,    0.2,    7.7,   0.00,   0.00, 1015.1,   84.5, -999.0
05-01-2023, 00:45:49,    242,    2.3,    7.8,   0.00,   0.00, 1015.1,   84.5, -999.0
05-01-2023, 00:45:58,    244,    1.3,    7.8,   0.00,   0.00, 1015.1,   84.6, -999.0
05-01-2023, 00:46:08,    261,    1.2,    7.8,   0.00,   0.00, 1015.1,   84.5, -999.0
05-01-2023, 00:46:18,    254,    1.3,    7.8,   0.00,   0.00, 1015.1,   84.4, -999.0
05-01-2023, 00:46:28,    266,    3.2,    7.7,   0.00,   0.00, 1015.1,   84.6, -999.0
05-01-2023, 00:46:38,    281,    1.7,    7.8,   0.00,   0.00, 1015.1,   84.7, -999.0
05-01-2023, 00:46:48,    270,    1.3,    7.8,   0.00,   0.00, 1015.1,   84.8, -999.0